CZ-6A DEB, 55899

Orbit data source: Space-Track

CZ-6A DEB, 55899 is space debris in SSO originally from a launch on Fri, 11 Nov 2022 UTC launched from the Taiyaun Space Center, China (TSC). Debris objects in space refer to the collection of defunct objects orbiting the Earth. Examples of debris include non-operational satellites, rocket bodies, and fragments generated from explosions, collisions, or faulty payload assembly.

Loading next visibility...
Identifier
55899, 2022-151AAX
Orbit
SSO
Country
Flag of CNCN / PRC
Related business
Manufacturer
SAST
Mission
Spacecraft
Bus & Motor
Unknown
Mass
Unknown
Launch date (UTC)
2022-11-11 (3 years ago)
Launch vehicle
Unknown
Launch site
Taiyaun Space Center, China (TSC)
Object type
Payload
Rocket body
Debris
Shape & HBR
Unknown shape, 0.1 m
Radar Cross Section
Small (<0.1 m²)

Expand to show TLE details & history
Last TLE update: 1 day ago

TLE from 1 day ago
0 CZ-6A DEB
1 55899U 22151AAX 25348.61213547  .00015674  00000-0  22132-2 0  9993
2 55899  98.6399  45.7610 0063476 116.8016 243.9703 14.75878260157317
Epoch: 2025-12-14T14:41Z
TLE epoch observation values (Epoch: 2025-12-14T14:41:28.504Z)
Latitude
Longitude
101.86968°
Altitude
665.145 km
Speed
7.514 km/s
True Right ascension
03h 03m 02s
True Declination
0° 00' 00"
Sunlit
Object was in full shadow at epoch
Visualization orbit readout
Latitude
Unknown
Longitude
Unknown
Altitude
Unknown
Speed
Unknown
Apparent Right ascension
Unknown
Apparent Declination
Unknown
Sunlit
N/A
Visualization observer readout
Local Sidereal Time
00:19:31
Azimuth
Unknown
Elevation
Unknown
Doppler factor
Unknown
Orbital elements
Apogee altitude
683.99 km
Perigee altitude
594.901 km
Semi-major axis
7,017.582 km
Eccentricity
0.00635
Inclination
98.6399°
RAAN
45.761°
Arg. of periapsis
116.8016°
True anomaly
243.31898°
Mean anomaly
243.9703°
Eccentric anomaly
243.64441°
Mean motion
3.692 °/min
Orbital period
97.51 mins
BSTAR
0.0022132
Loading maneuver chart data...
Computing Atmospheric mass density...
Loading historical data...
Loading historical data...
Loading historical data...
Loading historical data...
Loading historical data...
Loading historical data...
Loading historical data...

Documentation

Showing up to 5 results
|